H1 CPF 2 NER 2024 4 25 9 116 01 glonass138 H2 1805301 9138 43508 2024 4 25 0 0 0 2024 4 28 23 45 0 900 1 1 0 0 0 1 H9 10 0 60425 0.00000 0 8977508.653 -6160175.143 23085641.288 10 0 60425 900.00000 0 10191824.651 -3583384.153 23123676.726 10 0 60425 1800.00000 0 11583167.653 -1123706.931 22713439.007 10 0 60425 2700.00000 0 13111276.793 1161074.126 21862788.245 10 0 60425 3600.00000 0 14726765.830 3221691.390 20588111.409 10 0 60425 4500.00000 0 16373104.350 5019203.735 18914015.446 10 0 60425 5400.00000 0 17988918.473 6526373.757 16872862.295 10 0 60425 6300.00000 0 19510516.128 7728553.705 14504153.562 10 0 60425 7200.00000 0 20874532.134 8624043.496 11853775.563 10 0 60425 8100.00000 0 22020582.734 9223906.047 8973118.214 10 0 60425 9000.00000 0 22893818.273 9551247.801 5918083.921 10 0 60425 9900.00000 0 23447266.318 9639994.729 2748005.136 10 0 60425 10800.00000 0 23643865.834 9533215.590 -475508.623 10 0 60425 11700.00000 0 23458105.633 9281063.489 -3689771.746 10 0 60425 12600.00000 0 22877196.678 8938423.264 -6832247.567 10 0 60425 13500.00000 0 21901727.458 8562364.989 -9841772.860 10 0 60425 14400.00000 0 20545773.434 8209512.347 -12659757.013 10 0 60425 15300.00000 0 18836454.784 7933438.426 -15231331.470 10 0 60425 16200.00000 0 16812960.124 7782200.418 -17506426.138 10 0 60425 17100.00000 0 14525076.579 7796118.744 -19440751.009 10 0 60425 18000.00000 0 12031287.529 8005895.692 -20996663.278 10 0 60425 18900.00000 0 9396517.620 8431154.036 -22143902.801 10 0 60425 19800.00000 0 6689619.348 9079458.164 -22860181.498 10 0 60425 20700.00000 0 3980706.345 9945859.569 -23131615.376 10 0 60425 21600.00000 0 1338444.628 11012986.287 -22952991.103 10 0 60425 22500.00000 0 -1172585.396 12251672.729 -22327862.335 10 0 60425 23400.00000 0 -3494346.604 13622103.479 -21268474.393 10 0 60425 24300.00000 0 -5577520.777 15075422.949 -19795519.188 10 0 60425 25200.00000 0 -7383312.497 16555743.101 -17937725.584 10 0 60425 26100.00000 0 -8884807.370 18002464.733 -15731293.510 10 0 60425 27000.00000 0 -10067829.475 19352814.579 -13219183.218 10 0 60425 27900.00000 0 -10931264.033 20544491.482 -10450273.762 10 0 60425 28800.00000 0 -11486833.725 21518310.255 -7478407.456 10 0 60425 29700.00000 0 -11758340.108 22220732.061 -4361339.199 10 0 60425 30600.00000 0 -11780403.920 22606174.957 -1159611.461 10 0 60425 31500.00000 0 -11596759.086 22639007.566 2064622.892 10 0 60425 32400.00000 0 -11258173.798 22295142.277 5248806.733 10 0 60425 33300.00000 0 -10820087.499 21563161.311 8331190.255 10 0 60425 34200.00000 0 -10340064.264 20444928.587 11252024.408 10 0 60425 35100.00000 0 -9875170.428 18955661.976 13954713.255 10 0 60425 36000.00000 0 -9479387.140 17123462.920 16386903.373 10 0 60425 36900.00000 0 -9201166.723 14988323.027 18501489.777 10 0 60425 37800.00000 0 -9081235.382 12600648.720 20257519.747 10 0 60425 38700.00000 0 -9150734.309 10019364.795 21620977.995 10 0 60425 39600.00000 0 -9429776.990 7309674.937 22565438.893 10 0 60425 40500.00000 0 -9926483.140 4540571.085 23072574.027 10 0 60425 41400.00000 0 -10636529.972 1782193.707 23132505.864 10 0 60425 42300.00000 0 -11543240.091 -896848.934 22744001.060 10 0 60425 43200.00000 0 -12618203.191 -3432092.818 21914499.649 10 0 60425 44100.00000 0 -13822406.676 -5765654.543 20659979.166 10 0 60425 45000.00000 0 -15107829.161 -7848392.068 19004655.597 10 0 60425 45900.00000 0 -16419431.524 -9641701.041 16980525.925 10 0 60425 46800.00000 0 -17697463.361 -11118872.637 14626759.924 10 0 60425 47700.00000 0 -18879989.158 -12265956.743 11988951.756 10 0 60425 48600.00000 0 -19905528.804 -13082094.632 9118244.712 10 0 60425 49500.00000 0 -20715701.720 -13579307.335 6070345.112 10 0 60425 50400.00000 0 -21257763.106 -13781748.559 2904443.915 10 0 60425 51300.00000 0 -21486924.783 -13724453.714 -317933.286 10 0 60425 52200.00000 0 -21368361.708 -13451637.898 -3534125.392 10 0 60425 53100.00000 0 -20878818.155 -13014615.111 -6681560.208 10 0 60425 54000.00000 0 -20007744.278 -12469427.178 -9698979.527 10 0 60425 54900.00000 0 -18757913.544 -11874283.502 -12527640.107 10 0 60425 55800.00000 0 -17145493.564 -11286920.896 -15112466.082 10 0 60425 56700.00000 0 -15199566.053 -10761996.322 -17403129.453 10 0 60425 57600.00000 0 -12961115.100 -10348623.852 -19355036.796 10 0 60425 58500.00000 0 -10481525.498 -10088161.022 -20930202.377 10 0 60425 59400.00000 0 -7820653.625 -10012338.956 -22097990.387 10 0 60425 60300.00000 0 -5044551.301 -10141815.826 -22835711.765 10 0 60425 61200.00000 0 -2222937.661 -10485215.126 -23129064.136 10 0 60425 62100.00000 0 573475.605 -11038689.463 -22972406.639 10 0 60425 63000.00000 0 3275694.290 -11786028.259 -22368864.673 10 0 60425 63900.00000 0 5819074.363 -12699304.640 -21330262.995 10 0 60425 64800.00000 0 8145768.202 -13740033.996 -19876888.905 10 0 60425 65700.00000 0 10206883.245 -14860795.109 -18037090.501 10 0 60425 66600.00000 0 11964264.143 -16007245.187 -15846718.233 10 0 60425 67500.00000 0 13391825.401 -17120443.643 -13348420.921 10 0 60425 68400.00000 0 14476380.490 -18139386.398 -10590810.263 10 0 60425 69300.00000 0 15217934.506 -19003643.718 -7627510.414 10 0 60425 70200.00000 0 15629430.049 -19655990.256 -4516111.477 10 0 60425 71100.00000 0 15735958.928 -20044916.396 -1317047.566 10 0 60425 72000.00000 0 15573474.641 -20126915.095 1907578.369 10 0 60425 72900.00000 0 15187061.444 -19868447.971 5095199.866 10 0 60425 73800.00000 0 14628834.269 -19247508.010 8183998.847 10 0 60425 74700.00000 0 13955558.958 -18254713.275 11114100.527 10 0 60425 75600.00000 0 13226093.719 -16893885.763 13828728.343 10 0 60425 76500.00000 0 12498759.824 -15182091.060 16275296.954 10 0 60425 77400.00000 0 11828752.156 -13149136.916 18406422.722 10 0 60425 78300.00000 0 11265698.214 -10836551.232 20180832.935 10 0 60425 79200.00000 0 10851467.624 -8296081.364 21564157.119 10 0 60425 80100.00000 0 10618323.634 -5587776.265 22529586.039 10 0 60425 81000.00000 0 10587493.653 -2777729.968 23058386.504 10 0 60425 81900.00000 0 10768218.515 64421.342 23140262.695 10 0 60425 82800.00000 0 11157320.314 2868146.340 22773557.369 10 0 60425 83700.00000 0 11739307.243 5564701.480 21965289.063 10 0 60425 84600.00000 0 12487011.734 8089740.061 20731024.237 10 0 60425 85500.00000 0 13362736.062 10385740.486 19094586.071 10 0 60426 0.00000 0 14319858.417 12404153.792 17087604.793 10 0 60426 900.00000 0 15304833.710 14107182.955 14748915.852 10 0 60426 1800.00000 0 16259504.796 15469117.679 12123819.175 10 0 60426 2700.00000 0 17123629.431 16477172.796 9263209.076 10 0 60426 3600.00000 0 17837515.722 17131792.460 6222593.349 10 0 60426 4500.00000 0 18344655.481 17446408.464 3061018.957 10 0 60426 5400.00000 0 18594243.827 17446662.529 -160074.953 10 0 60426 6300.00000 0 18543477.734 17169125.368 -3378054.285 10 0 60426 7200.00000 0 18159535.197 16659566.657 -6530313.703 10 0 60426 8100.00000 0 17421149.851 15970849.362 -9555502.238 10 0 60426 9000.00000 0 16319712.930 15160537.967 -12394726.006 10 0 60426 9900.00000 0 14859854.390 14288322.490 -14992703.561 10 0 60426 10800.00000 0 13059477.191 13413368.108 -17298850.445 10 0 60426 11700.00000 0 10949241.930 12591703.318 -19268271.002 10 0 60426 12600.00000 0 8571522.454 11873757.908 -20862637.522 10 0 60426 13500.00000 0 5978875.441 11302155.406 -22050939.270 10 0 60426 14400.00000 0 3232087.475 10909853.681 -22810086.751 10 0 60426 15300.00000 0 397880.946 10718712.394 -23125359.553 10 0 60426 16200.00000 0 -2453625.722 10738547.657 -22990689.392 10 0 60426 17100.00000 0 -5251597.812 10966713.498 -22408773.237 10 0 60426 18000.00000 0 -7927192.626 11388227.311 -21391014.777 10 0 60426 18900.00000 0 -10416183.951 11976433.427 -19957295.819 10 0 60426 19800.00000 0 -12661393.984 12694176.181 -18135582.460 10 0 60426 20700.00000 0 -14614832.185 13495432.376 -15961374.083 10 0 60426 21600.00000 0 -16239452.938 14327333.676 -13477006.219 10 0 60426 22500.00000 0 -17510459.998 15132493.069 -10730821.131 10 0 60426 23400.00000 0 -18416104.693 15851536.761 -7776222.613 10 0 60426 24300.00000 0 -18957946.205 16425734.290 -4670633.682 10 0 60426 25200.00000 0 -19150564.780 16799615.604 -1474377.786 10 0 60426 26100.00000 0 -19020741.663 16923464.483 1750494.369 10 0 60426 27000.00000 0 -18606141.899 16755583.074 4941409.300 10 0 60426 27900.00000 0 -17953556.814 16264232.062 8036482.969 10 0 60426 28800.00000 0 -17116781.283 15429164.763 10975717.162 10 0 60426 29700.00000 0 -16154215.907 14242690.612 13702156.958 10 0 60426 30600.00000 0 -15126295.387 12710223.229 16162987.319 10 0 60426 31500.00000 0 -14092851.266 10850289.837 18310548.075 10 0 60426 32400.00000 0 -13110519.558 8694001.109 20103248.506 10 0 60426 33300.00000 0 -12230301.547 6284002.837 21506364.749 10 0 60426 34200.00000 0 -11495379.384 3672952.089 22492705.510 10 0 60426 35100.00000 0 -10939277.300 921579.978 23043134.099 10 0 60426 36000.00000 0 -10584444.831 -1903579.976 23146937.359 10 0 60426 36900.00000 0 -10441320.947 -4732705.213 22802034.727 10 0 60426 37800.00000 0 -10507918.089 -7495336.634 22015023.436 10 0 60426 38700.00000 0 -10769943.717 -10123061.876 20801058.635 10 0 60426 39600.00000 0 -11201454.715 -12552119.406 19183570.030 10 0 60426 40500.00000 0 -11766017.907 -14725816.521 17193819.588 10 0 60426 41400.00000 0 -12418328.847 -16596661.593 14870307.614 10 0 60426 42300.00000 0 -13106221.677 -18128122.284 12258037.531 10 0 60426 43200.00000 0 -13772986.214 -19295936.621 9407652.384 10 0 60426 44100.00000 0 -14359895.139 -20088922.087 6374458.860 10 0 60426 45000.00000 0 -14808834.733 -20509248.624 3217357.096 10 0 60426 45900.00000 0 -15064927.807 -20572163.849 -2303.211 10 0 60426 46800.00000 0 -15079037.197 -20305181.816 -3221918.122 10 0 60426 47700.00000 0 -14810042.845 -19746769.414 -6378852.410 10 0 60426 48600.00000 0 -14226794.726 -18944585.941 -9411665.652 10 0 60426 49500.00000 0 -13309657.414 -17953350.484 -12261316.635 10 0 60426 50400.00000 0 -12051579.295 -16832427.747 -14872321.568 10 0 60426 51300.00000 0 -10458639.652 -15643234.985 -17193842.605 10 0 60426 52200.00000 0 -8550048.969 -14446580.348 -19180684.650 10 0 60426 53100.00000 0 -6357601.166 -13300045.723 -20794180.404 10 0 60426 54000.00000 0 -3924599.646 -12255525.143 -22002946.105 10 0 60426 54900.00000 0 -1304301.375 -11357022.953 -22783493.138 10 0 60426 55800.00000 0 1442056.497 -10638804.667 -23120683.756 10 0 60426 56700.00000 0 4247565.427 -10123978.259 -23008022.335 10 0 60426 57600.00000 0 7042193.666 -9823565.193 -22447776.908 10 0 60426 58500.00000 0 9755467.868 -9736099.616 -21450929.055 10 0 60426 59400.00000 0 12319176.690 -9847771.731 -20036953.572 10 0 60426 60300.00000 0 14669984.199 -10133108.325 -18233432.596 10 0 60426 61200.00000 0 16751844.724 -10556160.755 -16075512.080 10 0 60426 62100.00000 0 18518119.258 -11072149.290 -13605211.509 10 0 60426 63000.00000 0 19933306.103 -11629493.538 -10870600.608 10 0 60426 63900.00000 0 20974314.641 -12172142.418 -7924859.371 10 0 60426 64800.00000 0 21631230.362 -12642104.644 -4825240.054 10 0 60426 65700.00000 0 21907540.648 -12982072.312 -1631951.611 10 0 60426 66600.00000 0 21819813.434 -13138026.392 1593011.347 10 0 60426 67500.00000 0 21396843.785 -13061713.875 4787072.056 10 0 60426 68400.00000 0 20678305.680 -12712891.885 7888284.015 10 0 60426 69300.00000 0 19712966.837 -12061244.037 10836528.694 10 0 60426 70200.00000 0 18556542.520 -11087888.269 13574675.490 10 0 60426 71100.00000 0 17269279.007 -9786412.569 16049681.815 10 0 60426 72000.00000 0 15913368.379 -8163394.839 18213612.587 10 0 60426 72900.00000 0 14550302.882 -6238384.630 20024560.168 10 0 60426 73800.00000 0 13238279.257 -4043346.758 21447447.886 10 0 60426 74700.00000 0 12029761.015 -1621589.026 22454702.493 10 0 60426 75600.00000 0 10969299.821 973782.579 23026783.458 10 0 60426 76500.00000 0 10091706.181 3681818.462 23152559.531 10 0 60426 77400.00000 0 9420645.203 6436010.244 22829525.705 10 0 60426 78300.00000 0 8967715.513 9166812.733 22063856.436 10 0 60426 79200.00000 0 8732049.570 11804300.095 20870293.783 10 0 60426 80100.00000 0 8700452.077 14280847.495 19271871.946 10 0 60426 81000.00000 0 8848070.950 16533728.146 17299482.567 10 0 60426 81900.00000 0 9139573.160 18507518.744 14991288.017 10 0 60426 82800.00000 0 9530776.630 20156213.699 12391992.786 10 0 60426 83700.00000 0 9970670.083 21444960.224 9551985.950 10 0 60426 84600.00000 0 10403736.146 22351341.682 6526370.284 10 0 60426 85500.00000 0 10772479.827 22866155.134 3373896.253 10 0 60427 0.00000 0 11020055.327 22993650.022 155821.534 10 0 60427 900.00000 0 11092879.651 22751217.524 -3065283.453 10 0 60427 1800.00000 0 10943121.093 22168543.203 -6226755.957 10 0 60427 2700.00000 0 10530956.481 21286258.716 -9267068.530 10 0 60427 3600.00000 0 9826499.685 20154149.221 -12127034.782 10 0 60427 4500.00000 0 8811318.297 18828992.558 -14750970.412 10 0 60427 5400.00000 0 7479472.638 17372121.800 -17087785.688 10 0 60427 6300.00000 0 5838031.581 15846814.600 -19091987.259 10 0 60427 7200.00000 0 3907041.963 14315620.050 -20724569.130 10 0 60427 8100.00000 0 1718951.579 12837736.226 -21953775.131 10 0 60427 9000.00000 0 -682491.061 11466549.223 -22755717.896 10 0 60427 9900.00000 0 -3243814.880 10247437.366 -23114842.442 10 0 60427 10800.00000 0 -5903816.874 9215932.745 -23024225.613 10 0 60427 11700.00000 0 -8595882.487 8396316.873 -22485705.979 10 0 60427 12600.00000 0 -11250539.183 7800708.671 -21509842.115 10 0 60427 13500.00000 0 -13798137.009 7428682.092 -20115700.511 10 0 60427 14400.00000 0 -16171544.713 7267428.181 -18330477.670 10 0 60427 15300.00000 0 -18308749.353 7292453.451 -16188964.103 10 0 60427 16200.00000 0 -20155251.531 7468783.750 -13732860.994 10 0 60427 17100.00000 0 -21666156.958 7752621.601 -11009963.098 10 0 60427 18000.00000 0 -22807877.820 8093385.886 -8073224.118 10 0 60427 18900.00000 0 -23559373.884 8436046.746 -4979723.043 10 0 60427 19800.00000 0 -23912882.583 8723656.213 -1789551.878 10 0 60427 20700.00000 0 -23874108.797 8899967.026 1435353.255 10 0 60427 21600.00000 0 -23461867.738 8912028.500 4632414.632 10 0 60427 22500.00000 0 -22707197.218 8712649.523 7739625.537 10 0 60427 23400.00000 0 -21651977.714 8262624.535 10696749.318 10 0 60427 24300.00000 0 -20347119.088 7532628.530 13446481.785 10 0 60427 25200.00000 0 -18850390.632 6504701.121 15935554.796 10 0 60427 26100.00000 0 -17223985.731 5173257.077 18115760.191 10 0 60427 27000.00000 0 -15531923.037 3545580.528 19944875.044 10 0 60427 27900.00000 0 -13837392.501 1641781.464 21387471.251 10 0 60427 28800.00000 0 -12200156.513 -505784.526 22415594.697 10 0 60427 29700.00000 0 -10674113.788 -2853610.287 23009301.780 10 0 60427 30600.00000 0 -9305126.675 -5348600.830 23157043.613 10 0 60427 31500.00000 0 -8129201.575 -7930043.333 22855890.862 10 0 60427 32400.00000 0 -7171097.508 -10531903.345 22111595.020 10 0 60427 33300.00000 0 -6443420.235 -13085353.570 20938484.557 10 0 60427 34200.00000 0 -5946239.364 -15521431.815 19359197.355 10 0 60427 35100.00000 0 -5667244.306 -17773719.018 17404253.627 10 0 60427 36000.00000 0 -5582432.622 -19780927.067 15111476.392 10 0 60427 36900.00000 0 -5657302.122 -21489289.236 12525269.532 10 0 60427 37800.00000 0 -5848496.955 -22854653.812 9695766.211 10 0 60427 38700.00000 0 -6105838.625 -23844193.315 6677863.139 10 0 60427 39600.00000 0 -6374656.395 -24437657.323 3530158.772 10 0 60427 40500.00000 0 -6598318.489 -24628115.745 313815.689 10 0 60427 41400.00000 0 -6720856.565 -24422160.645 -2908630.688 10 0 60427 42300.00000 0 -6689571.551 -23839557.446 -6074493.413 10 0 60427 43200.00000 0 -6457509.348 -22912359.730 -9122160.888 10 0 60427 44100.00000 0 -5985700.115 -21683524.635 -11992304.489 10 0 60427 45000.00000 0 -5245064.773 -20205087.193 -14629042.370 10 0 60427 45900.00000 0 -4217906.368 -18535970.770 -16981035.815 10 0 60427 46800.00000 0 -2898921.645 -16739526.248 -19002495.950 10 0 60427 47700.00000 0 -1295688.573 -14880904.068 -20654080.549 10 0 60427 48600.00000 0 571392.060 -13024370.174 -21903663.111 10 0 60427 49500.00000 0 2669699.734 -11230679.051 -22726959.141 10 0 60427 50400.00000 0 4955517.557 -9554614.359 -23107997.529 10 0 60427 51300.00000 0 7375629.532 -8042800.253 -23039428.172 10 0 60427 52200.00000 0 9869325.469 -6731874.717 -22522660.241 10 0 60427 53100.00000 0 12370730.042 -5647100.779 -21567828.867 10 0 60427 54000.00000 0 14811359.041 -4801472.703 -20193591.335 10 0 60427 54900.00000 0 17122796.348 -4195353.323 -18426757.152 10 0 60427 55800.00000 0 19239380.107 -3816656.198 -16301759.579 10 0 60427 56700.00000 0 21100786.284 -3641563.282 -13859979.225 10 0 60427 57600.00000 0 22654402.118 -3635746.251 -11148933.153 10 0 60427 58500.00000 0 23857390.809 -3756038.496 -8221345.626 10 0 60427 59400.00000 0 24678361.816 -3952485.830 -5134118.859 10 0 60427 60300.00000 0 25098577.701 -4170688.167 -1947224.135 10 0 60427 61200.00000 0 25112647.971 -4354332.286 1277464.814 10 0 60427 62100.00000 0 24728681.907 -4447807.961 4477373.193 10 0 60427 63000.00000 0 23967895.066 -4398796.426 7590437.792 10 0 60427 63900.00000 0 22863686.964 -4160721.569 10556307.258 10 0 60427 64800.00000 0 21460229.470 -3694960.243 13317506.839 10 0 60427 65700.00000 0 19810625.674 -2972718.425 15820545.393 10 0 60427 66600.00000 0 17974716.634 -1976494.105 18016943.741 10 0 60427 67500.00000 0 16016627.730 -701065.174 19864165.219 10 0 60427 68400.00000 0 14002156.785 846039.605 21326431.355 10 0 60427 69300.00000 0 11996112.318 2644606.978 22375407.763 10 0 60427 70200.00000 0 10059712.009 4662341.206 22990747.917 10 0 60427 71100.00000 0 8248148.703 6855977.891 23160484.990 10 0 60427 72000.00000 0 6608424.208 9172864.787 22881264.615 10 0 60427 72900.00000 0 5177540.037 11552945.504 22158414.183 10 0 60427 73800.00000 0 3981119.501 13931065.410 21005847.053 10 0 60427 74700.00000 0 3032517.909 16239505.465 19445802.912 10 0 60427 75600.00000 0 2332457.502 18410640.107 17508428.335 10 0 60427 76500.00000 0 1869202.163 20379609.680 15231204.527 10 0 60427 77400.00000 0 1619264.514 22086896.799 12658232.070 10 0 60427 78300.00000 0 1548615.822 23480699.448 9839385.347 10 0 60427 79200.00000 0 1614347.934 24519001.520 6829352.007 10 0 60427 80100.00000 0 1766717.234 25171253.621 3686575.403 10 0 60427 81000.00000 0 1951484.216 25419592.915 472120.187 10 0 60427 81900.00000 0 2112449.360 25259549.865 -2751516.881 10 0 60427 82800.00000 0 2194077.281 24700211.228 -5921627.344 10 0 60427 83700.00000 0 2144097.052 23763831.632 -8976518.218 10 0 60427 84600.00000 0 1915967.249 22484909.436 -11856721.145 10 0 60427 85500.00000 0 1471099.867 20908765.445 -14506158.901 10 0 60428 0.00000 0 780747.472 19089684.361 -16873245.407 10 0 60428 900.00000 0 -172528.250 17088696.328 -18911898.159 10 0 60428 1800.00000 0 -1393869.101 14971094.614 -20582439.588 10 0 60428 2700.00000 0 -2875658.388 12803790.894 -21852373.659 10 0 60428 3600.00000 0 -4597604.143 10652621.798 -22697019.217 10 0 60428 4500.00000 0 -6527365.338 8579718.953 -23099989.170 10 0 60428 5400.00000 0 -8621695.502 6641052.799 -23053506.253 10 0 60428 6300.00000 0 -10828056.394 4884252.626 -22558549.633 10 0 60428 7200.00000 0 -13086634.511 3346793.405 -21624829.976 10 0 60428 8100.00000 0 -15332676.369 2054624.246 -20270593.896 10 0 60428 9000.00000 0 -17499045.068 1021294.536 -18522262.028 10 0 60428 9900.00000 0 -19518891.433 247612.787 -16413908.136 10 0 60428 10800.00000 0 -21328328.185 -278149.302 -13986589.722 10 0 60428 11700.00000 0 -22868995.571 -579517.990 -11287543.437 10 0 60428 12600.00000 0 -24090411.351 -690576.761 -8369261.280 10 0 60428 13500.00000 0 -24952007.228 -654277.681 -5288465.856 10 0 60428 14400.00000 0 -25424766.942 -520377.584 -2105004.925 10 0 60428 15300.00000 0 -25492398.066 -343087.465 1119312.899 10 0 60428 16200.00000 0 -25151989.131 -178535.344 4321918.385 10 0 60428 17100.00000 0 -24414125.365 -82150.525 7440694.360 10 0 60428 18000.00000 0 -23302458.966 -106080.154 10415177.172 10 0 60428 18900.00000 0 -21852752.656 -296747.422 13187723.753 10 0 60428 19800.00000 0 -20111437.056 -692654.474 15704622.002 10 0 60428 20700.00000 0 -18133742.531 -1322522.660 17917123.504 10 0 60428 21600.00000 0 -15981483.561 -2203848.438 19782379.338 10 0 60428 22500.00000 0 -13720587.752 -3341935.848 21264261.782 10 0 60428 23400.00000 0 -11418471.876 -4729446.568 22334056.917 10 0 60428 24300.00000 0 -9141373.277 -6346487.158 22971015.646 10 0 60428 25200.00000 0 -6951746.561 -8161230.935 23162753.196 10 0 60428 26100.00000 0 -4905832.615 -10131049.847 22905489.816 10 0 60428 27000.00000 0 -3051499.831 -12204110.753 22204128.164 10 0 60428 27900.00000 0 -1426446.145 -14321371.321 21072165.601 10 0 60428 28800.00000 0 -56835.819 -16418894.045 19531442.497 10 0 60428 29700.00000 0 1043572.988 -18430383.560 17611730.473 10 0 60428 30600.00000 0 1873773.952 -20289842.751 15350167.385 10 0 60428 31500.00000 0 2445317.404 -21934237.680 12790548.782 10 0 60428 32400.00000 0 2781582.575 -23306060.493 9982488.350 10 0 60428 33300.00000 0 2916547.819 -24355683.055 6980462.574 10 0 60428 34200.00000 0 2893110.643 -25043402.229 3842757.467 10 0 60428 35100.00000 0 2761028.512 -25341090.229 630337.393 10 0 60428 36000.00000 0 2574567.764 -25233379.622 -2594342.011 10 0 60428 36900.00000 0 2389960.665 -24718332.012 -5768553.310 10 0 60428 37800.00000 0 2262779.105 -23807561.117 -8830524.732 10 0 60428 38700.00000 0 2245337.330 -22525804.086 -11720650.818 10 0 60428 39600.00000 0 2384234.979 -20909958.324 -14382661.606 10 0 60428 40500.00000 0 2718145.969 -19007623.927 -16764726.624 10 0 60428 41400.00000 0 3275948.195 -16875212.784 -18820471.323 10 0 60428 42300.00000 0 4075274.589 -14575703.868 -20509885.455 10 0 60428 43200.00000 0 5121547.953 -12176139.093 -21800105.349 10 0 60428 44100.00000 0 6407541.423 -9744964.943 -22666054.705 10 0 60428 45000.00000 0 7913483.965 -7349331.369 -23090931.532 10 0 60428 45900.00000 0 9607707.185 -5052460.937 -23066532.034 10 0 60428 46800.00000 0 11447806.821 -2911197.930 -22593405.567 10 0 60428 47700.00000 0 13382270.512 -973839.281 -21680838.084 10 0 60428 48600.00000 0 15352503.846 721663.002 -20346664.874 10 0 60428 49500.00000 0 17295169.911 2149053.996 -18616916.636 10 0 60428 50400.00000 0 19144744.411 3294627.617 -16525306.163 10 0 60428 51300.00000 0 20836179.351 4157544.080 -14112565.952 10 0 60428 52200.00000 0 22307563.784 4749601.697 -11425649.918 10 0 60428 53100.00000 0 23502670.201 5094474.566 -8516815.061 10 0 60428 54000.00000 0 24373280.002 5226450.136 -5442601.268 10 0 60428 54900.00000 0 24881190.858 5188721.600 -2262729.381 10 0 60428 55800.00000 0 24999822.084 5031308.662 961060.676 10 0 60428 56700.00000 0 24715351.225 4808695.684 4166208.859 10 0 60428 57600.00000 0 24027334.669 4577287.890 7290547.577 10 0 60428 58500.00000 0 22948786.856 4392793.696 10273504.224 10 0 60428 59400.00000 0 21505715.219 4307644.012 13057270.463 10 0 60428 60300.00000 0 19736130.720 4368557.538 15587915.929 10 0 60428 61200.00000 0 17688575.505 4614354.666 17816425.268 10 0 60428 62100.00000 0 15420229.106 5074111.932 19699639.189 10 0 60428 63000.00000 0 12994671.802 5765734.635 21201082.203 10 0 60428 63900.00000 0 10479397.612 6695007.689 22291661.928 10 0 60428 64800.00000 0 7943179.501 7855164.909 22950227.354 10 0 60428 65700.00000 0 5453395.110 9226995.481 23163975.994 10 0 60428 66600.00000 0 3073422.831 10779484.193 22928702.509 10 0 60428 67500.00000 0 860215.044 12470959.989 22248884.166 10 0 60428 68400.00000 0 -1137852.005 14250706.442 21137601.217 10 0 60428 69300.00000 0 -2882763.395 16060968.509 19616293.168 10 0 60428 70200.00000 0 -4348212.448 17839273.357 17714354.722 10 0 60428 71100.00000 0 -5520453.945 19520969.737 15468578.087 10 0 60428 72000.00000 0 -6398628.427 21041880.743 12922451.184 10 0 60428 72900.00000 0 -6994544.271 22340959.622 10125324.183 10 0 60428 73800.00000 0 -7331926.817 23362837.507 7131459.438 10 0 60428 74700.00000 0 -7445166.150 24060155.839 3998982.534 10 0 60428 75600.00000 0 -7377616.450 24395584.777 788754.406 10 0 60428 76500.00000 0 -7179518.899 24343441.636 -2436813.565 10 0 60428 77400.00000 0 -6905636.452 23890839.917 -5614978.048 10 0 60428 78300.00000 0 -6612701.226 23038319.232 -8683891.426 10 0 60428 79200.00000 0 -6356783.557 21799928.252 -11583813.876 10 0 60428 80100.00000 0 -6190695.277 20202756.113 -14258285.162 10 0 60428 81000.00000 0 -6161538.457 18285931.139 -16655232.374 10 0 60428 81900.00000 0 -6308504.673 16099128.373 -18727991.145 10 0 60428 82800.00000 0 -6661019.162 13700648.357 -20436219.776 10 0 60428 83700.00000 0 -7237309.408 11155147.647 -21746688.063 10 0 60428 84600.00000 0 -8043459.592 8531116.155 -22633925.317 10 0 60428 85500.00000 0 -9072991.520 5898206.998 -23080715.042 99